Regional Weather Roundup
Issued by NWS New Orleans/Baton Rouge, LA

Home | Current Version | Previous Version | Graphics & Text | Print | Product List | Glossary On
Versions: 1 2 3 4 5 6 7 8 9 10 11 12 13 14 15 16 17 18 19 20 21 22 23 24 25 26 27 28 29 30 31 32 33 34 35 36 37 38 39 40 41 42 43 44 45 46 47 48 49 50
525
ASUS44 KLIX 312010
RWRLIX
NEW ORLEANS REGIONAL WEATHER ROUNDUP
NATIONAL WEATHER SERVICE NEW ORLEANS LA
200 PM CST SAT JAN 31 2015

NOTE: "FAIR" INDICATES FEW OR NO CLOUDS BELOW 12,000 FEET WITH NO
      SIGNIFICANT WEATHER AND/OR OBSTRUCTIONS TO VISIBILITY.
      SKY/WX - SKY CONDITION AND SIGNIFICANT WEATHER.
      TMP - AIR TEMPERATURE.     DP    - DEWPOINT TEMPERATURE.
      RH  - RELATIVE HUMIDITY.   PRES  - PRESSURE.
      HI  - HEAT INDEX.          WCI   - WIND CHILL INDEX.

*  THESE STATIONS ARE NOT NWS OR FAA STATIONS AND ARE NOT UNDER
   NWS QUALITY CONTROL.

LAZ038-040-048-061>063-065>067-069-312100-
SOUTHEAST LOUISIANA

CITY           SKY/WX    TMP DP  RH WIND       PRES   REMARKS
N.O. AUDUBON     N/A     60  50  69 MISG        N/A
N.O. INTL ARPT CLOUDY    59  46  62 E12       30.21F
N.O. LAKEFRONT PTSUNNY   59  46  62 E16       30.22F
N.O. DOWNTOWN* NOT AVBL
SLIDELL        MOSUNNY   62  46  55 SE13      30.22F
BATON ROUGE    CLOUDY    61  43  51 E8        30.20F
BOOTHVILLE     MOSUNNY   65  51  60 E12       30.21F
BELLE CHASSE   CLOUDY    62  48  60 E14       30.20F
BOGALUSA*        N/A     64  35  34 SE5       30.24F
GALLIANO*      CLOUDY    65  52  62 MISG      30.19F
NEW ROADS*       N/A     59  41  50 E5        30.20F
GONZALES*        N/A     59  45  60 NE7       30.21F
HAMMOND*       PTSUNNY   63  46  55 S13       30.24S
HOUMA*         NOT AVBL
PORT FOURCHON* CLEAR     66  54  63 E15       30.21F

$$

MSZ070-080>082-312100-
SOUTHERN MISSISSIPPI

CITY           SKY/WX    TMP DP  RH WIND       PRES   REMARKS
MCCOMB         MOSUNNY   60  32  34 S8        30.22F
GULFPORT       MOSUNNY   59  44  57 E18       30.24F
BILOXI         MOSUNNY   61  45  55 SE13      30.24F
PASCAGOULA     MOSUNNY   60  42  51 SE12      30.26F
STENNIS ARPT*  SUNNY     61  41  48 SE9G18    30.24F

$$

COASTAL OBSERVATIONS
LAKE AND NEARSHORE STATIONS

STATION/POSITION TIME  TEMP    WIND        PRES    WAVE
                       AIR SEA DIR/SP/G            HT/PER
                 (UTC) (F)     (DEG/KT/KT) (MB)    (FT/S)
PASCAGOULA       2000   58     100/ 12/ 16 1023.9
WAVELAND YACHT   2000   55     110/ 14/ 17 1023.2
GRAND ISLE       2000   64 61  100/ 11/ 15 1022.7
SOUTHWEST PASS   2000   71 47  100/ 16/ 18 1022.5
NEW CANAL        2000   58 56   80/  6/ 14 1023.4
SHELL BEACH      2000   56 56   80/ 14/ 17 1023.2

OFFSHORE STATIONS

STATION/POSITION TIME  TEMP    WIND        PRES    WAVE
                       AIR SEA DIR/SP/G            HT/PER
                 (UTC) (F)     (DEG/KT/KT) (MB)    (FT/S)
64 S DAUPHIN ISL 1942   62 69  100/ 16/ 19 1023.5    4/ 6

$$




USA.gov is the U.S. government's official web portal to all federal, state and local government web resources and services.